When you browse on this site, cookies collect data to enhance your experience and personalize the content and advertising you see.
Visit our Privacy Policy to learn more. By continuing to use the site, you agree to this use of cookies and data.

Hourly Weather Bagdad

Today, 20 September, Sunday

Time Temperature Precipitation Wind Pressure Humidity
00:00 +33°C° 0 mm 3 mps 750 mmHg 22%
01:00 +33°C° 0 mm 3 mps 750 mmHg 24%
02:00 +32°C° 0 mm 4 mps 750 mmHg 26%
03:00 +32°C° 0 mm 4 mps 750 mmHg 30%
04:00 +30°C° 0 mm 4 mps 750 mmHg 29%
05:00 +29°C° 0 mm 4 mps 751 mmHg 29%
06:00 +29°C° 0 mm 4 mps 751 mmHg 29%
07:00 +32°C° 0 mm 4 mps 751 mmHg 26%
08:00 +35°C° 0 mm 4 mps 751 mmHg 23%
09:00 +38°C° 0 mm 4 mps 751 mmHg 19%
10:00 +40°C° 0 mm 5 mps 751 mmHg 17%
11:00 +42°C° 0 mm 5 mps 751 mmHg 14%
12:00 +45°C° 0 mm 6 mps 751 mmHg 12%
13:00 +46°C° 0 mm 6 mps 751 mmHg 11%
14:00 +46°C° 0 mm 7 mps 750 mmHg 10%
15:00 +46°C° 0 mm 8 mps 749 mmHg 9%
16:00 +45°C° 0 mm 7 mps 749 mmHg 10%
17:00 +43°C° 0 mm 7 mps 749 mmHg 10%
18:00 +40°C° 0 mm 6 mps 750 mmHg 11%
19:00 +39°C° 0 mm 6 mps 750 mmHg 11%
20:00 +37°C° 0 mm 5 mps 750 mmHg 12%
21:00 +36°C° 0 mm 5 mps 750 mmHg 12%
22:00 +36°C° 0 mm 5 mps 750 mmHg 14%
23:00 +35°C° 0 mm 4 mps 750 mmHg 15%

Tomorrow, 21 September, Monday

Time Temperature Precipitation Wind Pressure Humidity
00:00 +34°C° 0 mm 4 mps 750 mmHg 16%
01:00 +34°C° 0 mm 4 mps 750 mmHg 16%
02:00 +33°C° 0 mm 4 mps 750 mmHg 16%
03:00 +32°C° 0 mm 4 mps 750 mmHg 15%
04:00 +32°C° 0 mm 4 mps 750 mmHg 15%
05:00 +30°C° 0 mm 4 mps 750 mmHg 14%
06:00 +30°C° 0 mm 4 mps 751 mmHg 14%
07:00 +34°C° 0 mm 4 mps 751 mmHg 12%
08:00 +36°C° 0 mm 4 mps 751 mmHg 11%
09:00 +40°C° 0 mm 5 mps 752 mmHg 9%
10:00 +42°C° 0 mm 5 mps 752 mmHg 8%
11:00 +45°C° 0 mm 5 mps 751 mmHg 8%
12:00 +48°C° 0 mm 6 mps 751 mmHg 7%
13:00 +48°C° 0 mm 6 mps 751 mmHg 7%
14:00 +48°C° 0 mm 6 mps 750 mmHg 7%
15:00 +49°C° 0 mm 6 mps 750 mmHg 7%
16:00 +47°C° 0 mm 5 mps 750 mmHg 8%
17:00 +45°C° 0 mm 5 mps 750 mmHg 9%
18:00 +42°C° 0 mm 4 mps 750 mmHg 10%
19:00 +40°C° 0 mm 4 mps 750 mmHg 11%
20:00 +38°C° 0 mm 4 mps 750 mmHg 12%
21:00 +37°C° 0 mm 4 mps 751 mmHg 14%
22:00 +36°C° 0 mm 4 mps 750 mmHg 14%
23:00 +36°C° 0 mm 3 mps 750 mmHg 14%

Day after tomorrow, 22 September, Tuesday

Time Temperature Precipitation Wind Pressure Humidity
00:00 +36°C° 0 mm 3 mps 750 mmHg 14%
01:00 +35°C° 0 mm 3 mps 750 mmHg 14%
02:00 +34°C° 0 mm 3 mps 750 mmHg 14%
03:00 +34°C° 0 mm 3 mps 749 mmHg 14%
04:00 +33°C° 0 mm 3 mps 750 mmHg 15%
05:00 +33°C° 0 mm 3 mps 750 mmHg 15%
06:00 +33°C° 0 mm 3 mps 751 mmHg 15%
07:00 +35°C° 0 mm 3 mps 751 mmHg 14%
08:00 +38°C° 0 mm 4 mps 751 mmHg 12%
09:00 +42°C° 0 mm 4 mps 751 mmHg 10%
10:00 +44°C° 0 mm 4 mps 751 mmHg 9%
11:00 +47°C° 0 mm 4 mps 751 mmHg 8%
12:00 +49°C° 0 mm 4 mps 751 mmHg 7%
13:00 +49°C° 0 mm 4 mps 751 mmHg 7%
14:00 +49°C° 0 mm 4 mps 750 mmHg 7%
15:00 +50°C° 0 mm 4 mps 750 mmHg 6%
16:00 +48°C° 0 mm 5 mps 750 mmHg 8%
17:00 +46°C° 0 mm 5 mps 750 mmHg 9%
18:00 +42°C° 0 mm 6 mps 750 mmHg 10%
19:00 +41°C° 0 mm 5 mps 750 mmHg 11%
20:00 +40°C° 0 mm 5 mps 751 mmHg 11%
21:00 +38°C° 0 mm 4 mps 751 mmHg 12%
22:00 +37°C° 0 mm 5 mps 751 mmHg 13%
23:00 +36°C° 0 mm 5 mps 751 mmHg 15%

23 September, Wednesday

Time Temperature Precipitation Wind Pressure Humidity
00:00 +35°C° 0 mm 5 mps 750 mmHg 16%
01:00 +35°C° 0 mm 5 mps 750 mmHg 16%
02:00 +34°C° 0 mm 5 mps 750 mmHg 17%
03:00 +33°C° 0 mm 5 mps 750 mmHg 18%
04:00 +33°C° 0 mm 5 mps 750 mmHg 18%
05:00 +32°C° 0 mm 5 mps 751 mmHg 19%
06:00 +32°C° 0 mm 5 mps 751 mmHg 20%
07:00 +35°C° 0 mm 5 mps 751 mmHg 18%
08:00 +39°C° 0 mm 5 mps 752 mmHg 15%
09:00 +42°C° 0 mm 5 mps 752 mmHg 12%
10:00 +45°C° 0 mm 5 mps 752 mmHg 11%
11:00 +47°C° 0 mm 5 mps 751 mmHg 9%
12:00 +49°C° 0 mm 5 mps 751 mmHg 8%
13:00 +49°C° 0 mm 5 mps 751 mmHg 8%
14:00 +49°C° 0 mm 5 mps 750 mmHg 7%
15:00 +49°C° 0 mm 5 mps 749 mmHg 7%
16:00 +47°C° 0 mm 5 mps 749 mmHg 9%
17:00 +45°C° 0 mm 6 mps 750 mmHg 11%
18:00 +42°C° 0 mm 6 mps 750 mmHg 13%
19:00 +41°C° 0 mm 6 mps 750 mmHg 14%
20:00 +40°C° 0 mm 6 mps 750 mmHg 15%
21:00 +39°C° 0 mm 6 mps 751 mmHg 16%
22:00 +38°C° 0 mm 6 mps 751 mmHg 17%
23:00 +36°C° 0 mm 6 mps 751 mmHg 19%

24 September, Thursday

Time Temperature Precipitation Wind Pressure Humidity
00:00 +35°C° 0 mm 6 mps 750 mmHg 21%
01:00 +34°C° 0 mm 6 mps 750 mmHg 22%
02:00 +34°C° 0 mm 5 mps 750 mmHg 23%
03:00 +33°C° 0 mm 5 mps 750 mmHg 25%
04:00 +33°C° 0 mm 4 mps 750 mmHg 24%
05:00 +32°C° 0 mm 4 mps 751 mmHg 24%
06:00 +31°C° 0 mm 3 mps 751 mmHg 24%
07:00 +35°C° 0 mm 4 mps 751 mmHg 21%
08:00 +38°C° 0 mm 4 mps 752 mmHg 18%
09:00 +42°C° 0 mm 4 mps 752 mmHg 14%
10:00 +43°C° 0 mm 4 mps 752 mmHg 13%
11:00 +45°C° 0 mm 4 mps 752 mmHg 12%
12:00 +47°C° 0 mm 4 mps 752 mmHg 11%
13:00 +47°C° 0 mm 4 mps 751 mmHg 10%
14:00 +48°C° 0 mm 5 mps 751 mmHg 10%
15:00 +48°C° 0 mm 5 mps 751 mmHg 10%
16:00 +46°C° 0 mm 5 mps 750 mmHg 12%
17:00 +43°C° 0 mm 5 mps 750 mmHg 13%
18:00 +41°C° 0 mm 4 mps 750 mmHg 15%
19:00 +40°C° 0 mm 4 mps 750 mmHg 16%
20:00 +38°C° 0 mm 4 mps 751 mmHg 17%
21:00 +37°C° 0 mm 3 mps 751 mmHg 18%
22:00 +36°C° 0 mm 4 mps 751 mmHg 18%
23:00 +36°C° 0 mm 4 mps 750 mmHg 19%

25 September, Friday

Time Temperature Precipitation Wind Pressure Humidity
00:00 +35°C° 0 mm 5 mps 750 mmHg 19%
01:00 +35°C° 0 mm 4 mps 750 mmHg 20%
02:00 +34°C° 0 mm 3 mps 750 mmHg 21%
03:00 +32°C° 0 mm 2 mps 749 mmHg 21%
04:00 +32°C° 0 mm 2 mps 750 mmHg 21%
05:00 +33°C° 0 mm 3 mps 750 mmHg 20%
06:00 +31°C° 0 mm 3 mps 750 mmHg 19%
07:00 +35°C° 0 mm 2 mps 750 mmHg 17%
08:00 +38°C° 0 mm 2 mps 750 mmHg 14%
09:00 +41°C° 0 mm 1 mps 750 mmHg 12%
10:00 +42°C° 0 mm 1 mps 750 mmHg 11%
11:00 +45°C° 0 mm 2 mps 750 mmHg 11%
12:00 +46°C° 0 mm 2 mps 749 mmHg 10%
13:00 +47°C° 0 mm 3 mps 749 mmHg 9%
14:00 +48°C° 0 mm 4 mps 748 mmHg 8%
15:00 +49°C° 0 mm 4 mps 748 mmHg 8%
16:00 +47°C° 0 mm 4 mps 747 mmHg 9%
17:00 +44°C° 0 mm 3 mps 747 mmHg 10%
18:00 +42°C° 0 mm 3 mps 747 mmHg 11%
19:00 +41°C° 0 mm 5 mps 747 mmHg 14%
20:00 +39°C° 0 mm 6 mps 747 mmHg 18%
21:00 +38°C° 0 mm 8 mps 748 mmHg 21%
22:00 +36°C° 0 mm 7 mps 748 mmHg 24%
23:00 +35°C° 0 mm 6 mps 748 mmHg 26%
Show more